| time (UTC) | temp F | wind direction | speed MPH | gust MPH | rain 1hr in | rain 24hr in | rain mn in | humidity % | barometer mb |
| 20260506195009 | 46 | 223 | 14.0 | 29.0 | 0.09 | 0.65 | 0.18 | 86 | 1016.4 |
| 20260506194009 | 46 | 218 | 9.0 | 18.0 | 0.11 | 0.64 | 0.17 | 88 | 1016.1 |
| 20260506193009 | 45 | 248 | 8.0 | 16.0 | 0.11 | 0.62 | 0.15 | 89 | 1015.7 |
| 20260506192010 | 44 | 245 | 3.0 | 9.0 | 0.11 | 0.62 | 0.15 | 88 | 1016.1 |
| 20260506191011 | 44 | 312 | 3.0 | 10.0 | 0.11 | 0.62 | 0.15 | 87 | 1015.7 |
| 20260506062008 | 62 | 332 | 8.0 | 12.0 | 0.00 | 0.00 | 0.00 | 63 | 1013.0 |
| 20260506061009 | 62 | 327 | 6.0 | 13.0 | 0.00 | 0.00 | 0.00 | 63 | 1013.0 |
| 20260506051009 | 63 | 337 | 6.0 | 15.0 | 0.00 | 0.00 | 0.00 | 62 | 1014.0 |
| 20260506045009 | 65 | 315 | 8.0 | 18.0 | 0.00 | 0.00 | 0.00 | 58 | 1014.3 |
| 20260506044009 | 64 | 309 | 7.0 | 16.0 | 0.00 | 0.00 | 0.00 | 59 | 1014.4 |
| 20260506043009 | 63 | 309 | 10.0 | 18.0 | 0.00 | 0.00 | 0.00 | 61 | 1014.7 |
| 20260506042009 | 63 | 302 | 7.0 | 17.0 | 0.00 | 0.00 | 0.00 | 62 | 1014.7 |
| 20260506041009 | 63 | 312 | 7.0 | 18.0 | 0.00 | 0.00 | 0.00 | 61 | 1014.9 |
| 20260506040009 | 63 | 347 | 6.0 | 15.0 | 0.00 | 0.00 | 0.00 | 61 | 1015.1 |
| 20260506035008 | 63 | 319 | 7.0 | 15.0 | 0.00 | 0.00 | 0.00 | 61 | 1015.2 |
| 20260506034009 | 63 | 333 | 7.0 | 15.0 | 0.00 | 0.00 | 0.00 | 61 | 1015.4 |
| 20260506033009 | 62 | 323 | 8.0 | 16.0 | 0.00 | 0.00 | 0.00 | 61 | 1015.5 |
| 20260506032009 | 62 | 327 | 7.0 | 15.0 | 0.00 | 0.00 | 0.00 | 63 | 1015.6 |
| 20260506031009 | 62 | 339 | 6.0 | 16.0 | 0.00 | 0.00 | 0.00 | 62 | 1015.9 |
| 20260506030009 | 62 | 312 | 6.0 | 15.0 | 0.00 | 0.00 | 0.00 | 62 | 1016.2 |
| 20260506025008 | 62 | 313 | 6.0 | 20.0 | 0.00 | 0.00 | 0.00 | 61 | 1016.3 |
| 20260506024009 | 62 | 301 | 9.0 | 16.0 | 0.00 | 0.00 | 0.00 | 61 | 1016.6 |
| 20260506023009 | 61 | 310 | 7.0 | 13.0 | 0.00 | 0.00 | 0.00 | 62 | 1016.7 |
| 20260506022009 | 61 | 321 | 6.0 | 16.0 | 0.00 | 0.00 | 0.00 | 64 | 1017.0 |
| 20260506021009 | 60 | 308 | 6.0 | 16.0 | 0.00 | 0.00 | 0.00 | 64 | 1017.2 |
| 20260506020009 | 60 | 317 | 7.0 | 12.0 | 0.00 | 0.00 | 0.00 | 64 | 1017.5 |
| 20260506015009 | 60 | 297 | 7.0 | 13.0 | 0.00 | 0.00 | 0.00 | 64 | 1017.6 |
| 20260506014008 | 60 | 306 | 4.0 | 13.0 | 0.00 | 0.00 | 0.00 | 64 | 1017.8 |
| 20260506013009 | 60 | 314 | 5.0 | 17.0 | 0.00 | 0.00 | 0.00 | 63 | 1018.0 |
| 20260506012008 | 60 | 293 | 8.0 | 13.0 | 0.00 | 0.00 | 0.00 | 63 | 1018.0 |
| 20260506011009 | 60 | 289 | 9.0 | 14.0 | 0.00 | 0.00 | 0.00 | 64 | 1018.1 |
| 20260506010009 | 60 | 291 | 8.0 | 12.0 | 0.00 | 0.00 | 0.00 | 64 | 1018.2 |
| 20260506005009 | 60 | 320 | 6.0 | 12.0 | 0.00 | 0.00 | 0.00 | 65 | 1018.2 |
| 20260506004009 | 60 | 299 | 6.0 | 15.0 | 0.00 | 0.00 | 0.00 | 66 | 1018.3 |
| 20260506003008 | 60 | 311 | 6.0 | 15.0 | 0.00 | 0.00 | 0.00 | 66 | 1018.4 |
| 20260506002010 | 60 | 318 | 4.0 | 12.0 | 0.00 | 0.00 | 0.00 | 67 | 1018.6 |
| 20260506001009 | 60 | 318 | 4.0 | 12.0 | 0.00 | 0.00 | 0.00 | 68 | 1018.6 |
| 20260506000009 | 60 | 297 | 5.0 | 12.0 | 0.00 | 0.00 | 0.00 | 68 | 1018.7 |
| 20260505235009 | 59 | 314 | 5.0 | 12.0 | 0.00 | 0.00 | 0.00 | 68 | 1018.7 |
| 20260505234009 | 59 | 299 | 4.0 | 10.0 | 0.00 | 0.00 | 0.00 | 68 | 1018.9 |
| 20260505233009 | 59 | 295 | 7.0 | 10.0 | 0.00 | 0.00 | 0.00 | 68 | 1018.9 |
| 20260505232009 | 59 | 322 | 4.0 | 9.0 | 0.00 | 0.00 | 0.00 | 69 | 1019.0 |
| 20260505231008 | 58 | 306 | 4.0 | 9.0 | 0.00 | 0.00 | 0.00 | 70 | 1019.1 |
| 20260505230008 | 58 | 293 | 5.0 | 13.0 | 0.00 | 0.00 | 0.00 | 71 | 1019.1 |
| 20260505225009 | 58 | 330 | 2.0 | 10.0 | 0.00 | 0.00 | 0.00 | 72 | 1019.1 |
| 20260505224009 | 57 | 330 | 4.0 | 10.0 | 0.00 | 0.00 | 0.00 | 74 | 1019.1 |
| 20260505223009 | 56 | 325 | 3.0 | 8.0 | 0.00 | 0.00 | 0.00 | 76 | 1019.2 |
| 20260505222009 | 56 | 329 | 2.0 | 5.0 | 0.00 | 0.00 | 0.00 | 76 | 1019.2 |
| 20260505221009 | 56 | 328 | 3.0 | 6.0 | 0.00 | 0.00 | 0.00 | 76 | 1019.2 |
| 20260505220009 | 56 | 331 | 2.0 | 5.0 | 0.00 | 0.00 | 0.00 | 77 | 1019.2 |
| 20260505215009 | 55 | 331 | 2.0 | 6.0 | 0.00 | 0.00 | 0.00 | 77 | 1019.1 |
| 20260505214009 | 55 | 333 | 2.0 | 6.0 | 0.00 | 0.00 | 0.00 | 77 | 1019.2 |
| 20260505213009 | 55 | 333 | 2.0 | 6.0 | 0.00 | 0.00 | 0.00 | 77 | 1019.1 |
| 20260505212008 | 55 | 331 | 2.0 | 6.0 | 0.00 | 0.00 | 0.00 | 78 | 1019.1 |
| 20260505211009 | 55 | 329 | 2.0 | 6.0 | 0.00 | 0.00 | 0.00 | 78 | 1019.1 |
| 20260505210009 | 55 | 330 | 2.0 | 6.0 | 0.00 | 0.00 | 0.00 | 78 | 1019.1 |
| 20260505205009 | 55 | 329 | 3.0 | 5.0 | 0.00 | 0.00 | 0.00 | 78 | 1019.1 |
| 20260505204008 | 55 | 329 | 2.0 | 5.0 | 0.00 | 0.00 | 0.00 | 78 | 1019.1 |
| 20260505203008 | 55 | 329 | 1.0 | 5.0 | 0.00 | 0.00 | 0.00 | 78 | 1019.1 |
| 20260505202010 | 55 | 329 | 3.0 | 6.0 | 0.00 | 0.00 | 0.00 | 78 | 1019.1 |
| 20260505201009 | 55 | 326 | 2.0 | 8.0 | 0.00 | 0.00 | 0.00 | 79 | 1019.1 |
| 20260505200008 | 55 | 321 | 2.0 | 8.0 | 0.00 | 0.00 | 0.00 | 79 | 1019.2 |